Find Kosmos-1791

NORAD ID: 17066 Int'l Des: 1986-086 Owner: VMF Country: SU operational
LEOCIRCULARPOLAR

Live-Position

3D-Globus wird geladen...

Über Kosmos-1791

Beschreibung wird geladen...

Nächste Überflüge

Passes for default location (London). Set your location on the main map for personalized predictions.

Höhenverlauf

Loading altitude history...

Zweizeiliger Elementsatz

1 17066U 86086A 26131.84500853 .00000039 00000-0 24737-4 0 9993
2 17066 82.9451 288.4005 0040336 342.8076 128.7714 13.76052413983196
Epoch: 11. Mai 2026 • Age: 7 hours

Aktueller Status

Höhe 1009.3 km
Geschwindigkeit 7.33 km/s
Subsatellitenpunkt 5.49°N, 175.91°W
Startdatum 13. Nov. 1986
Alter 39.4 years
Typ other

Technische Details

Klassifizierung Payload
Masse 800.00 kg
Trockenmasse 800.00 kg
Gesamtmasse 800.00 kg
Länge 5.00 m
Durchmesser 2.10 m
Spannweite 17.00 m
Form Cyl + Ant
Hersteller OAZ
Bus-Typ KAUR-1 11F643
Phasenstatus In Orbit
Besitzer/Staat VMF/SU

Most Searched